Regional Weather Roundup
Issued by NWS Goodland, KS

Home | Current Version | Previous Version | Text Only | Print | Product List | Glossary Off
Versions: 1 2 3 4 5 6 7 8 9 10 11 12 13 14 15 16 17 18 19 20 21 22 23 24 25 26 27 28 29 30 31 32 33 34 35 36 37 38 39 40 41 42 43 44 45 46 47 48 49 50

000
ASUS43 KGLD 242059
RWRGLD

GOODLAND FORECAST AREA HOURLY WEATHER ROUNDUP
NATIONAL WEATHER SERVICE GOODLAND KS
300 PM MDT THU JUL 24 2014

...OFFICIAL OBSERVATIONS...

CITY           SKY/WX    TMP DP  RH WIND       PRES   REMARKS
GOODLAND KS    SUNNY    100  45  15 S17G29    29.94F
HILL CITY KS   SUNNY     99  66  33 S18G28    29.90F HX 103
IMPERIAL NEB   SUNNY    103  42  12 S15       29.87F
MCCOOK NEB     SUNNY    102  61  25 S18G26    29.86F HX 103
AKRON CO       SUNNY    100  40  12 W9        29.97F
BURLINGTON CO  SUNNY    100  41  13 S20G29    29.98F
LIMON CO       PTSUNNY   97  47  18 S18G25    30.04F
$$

...UNOFFICIAL OBSERVATIONS...

CITY           SKY/WX    TMP DP  RH WIND       PRES   REMARKS
COLBY KS       SUNNY    100  57  23 S21G29    29.93F
GOVE KS          N/A    100  32   9 MISG        N/A
LENORA KS        N/A     97  32  10 MISG        N/A
NORTON KS      SUNNY     99  57  25 SE17G25   29.89F
SHARON SPRINGS   N/A    102  50  17 S16G31      N/A
KIT CARSON CO    N/A    100  46  15 N13G23      N/A
YUMA CO          N/A     90  51  26 S5G22       N/A
$$



USA.gov is the U.S. government's official web portal to all federal, state and local government web resources and services.